TimeAKDT,TemperatureF,Dew PointF,Humidity,Sea Level PressureIn,VisibilityMPH,Wind Direction,Wind SpeedMPH,Gust SpeedMPH,PrecipitationIn,Events,Conditions,WindDirDegrees,DateUTC
12:03 AM,53.6,51.8,94,29.54,7.0,SSE,3.5,-,0.01,Rain,Light Rain,150,2013-08-23 08:03:00
12:15 AM,53.6,51.8,94,29.54,5.0,South,3.5,-,0.03,Rain,Rain,180,2013-08-23 08:15:00
12:53 AM,52.0,51.1,97,29.55,4.0,South,3.5,-,0.10,Rain,Rain,170,2013-08-23 08:53:00
1:17 AM,51.8,50.0,94,29.53,4.0,South,4.6,-,0.05,Rain,Rain,170,2013-08-23 09:17:00
1:53 AM,52.0,50.0,93,29.54,3.0,SSE,8.1,-,0.19,Rain,Rain,160,2013-08-23 09:53:00
2:48 AM,51.8,50.0,94,29.52,6.0,SW,6.9,-,0.14,Rain,Rain,220,2013-08-23 10:48:00
2:53 AM,52.0,50.0,93,29.54,6.0,SW,6.9,-,0.15,Rain,Light Rain,220,2013-08-23 10:53:00
3:23 AM,51.8,50.0,94,29.52,9.0,SW,8.1,-,0.03,Rain,Light Rain,220,2013-08-23 11:23:00
3:33 AM,51.8,50.0,94,29.52,10.0,SW,6.9,-,0.04,Rain,Light Rain,220,2013-08-23 11:33:00
3:53 AM,52.0,50.0,93,29.54,10.0,Variable,4.6,-,0.05,Rain,Light Rain,0,2013-08-23 11:53:00
4:08 AM,51.8,50.0,94,29.52,9.0,SW,6.9,-,0.00,Rain,Light Rain,220,2013-08-23 12:08:00
4:20 AM,51.8,50.0,94,29.52,4.0,SW,5.8,-,0.01,Rain,Light Rain,230,2013-08-23 12:20:00
4:31 AM,51.8,50.0,94,29.52,2.5,SW,5.8,-,0.02,Rain,Light Rain,220,2013-08-23 12:31:00
4:39 AM,51.8,50.0,94,29.52,3.0,SW,5.8,-,0.03,Rain,Light Rain,220,2013-08-23 12:39:00
4:53 AM,51.1,50.0,96,29.53,3.0,SW,4.6,-,0.04,Rain,Light Rain,220,2013-08-23 12:53:00
5:04 AM,51.8,50.0,94,29.51,6.0,SW,6.9,-,0.00,Rain,Light Rain,220,2013-08-23 13:04:00
5:53 AM,52.0,50.0,93,29.53,4.0,SW,11.5,19.6,0.02,Rain,Light Rain,230,2013-08-23 13:53:00
6:43 AM,51.8,50.0,94,29.51,3.0,SW,5.8,-,0.02,Rain,Light Rain,220,2013-08-23 14:43:00
6:53 AM,51.1,50.0,96,29.53,2.5,SW,5.8,-,0.03,Rain,Light Rain,220,2013-08-23 14:53:00
6:59 AM,51.8,50.0,94,29.51,1.8,SW,5.8,-,0.01,Rain,Light Rain,220,2013-08-23 14:59:00
7:10 AM,51.8,50.0,94,29.51,2.0,SW,5.8,-,0.01,Rain,Light Rain,230,2013-08-23 15:10:00
7:37 AM,51.8,50.0,94,29.51,1.5,Variable,4.6,-,0.03,Rain,Light Rain,0,2013-08-23 15:37:00
7:53 AM,51.1,50.0,96,29.52,2.0,SW,5.8,-,0.05,Rain,Light Rain,220,2013-08-23 15:53:00
8:17 AM,51.8,50.0,94,29.51,3.0,SW,6.9,-,0.02,Rain,Light Rain,230,2013-08-23 16:17:00
8:42 AM,51.8,51.8,100,29.50,1.8,Variable,4.6,-,0.04,Rain,Light Rain,0,2013-08-23 16:42:00
8:49 AM,51.8,51.8,100,29.51,2.0,Variable,3.5,-,0.04,Rain,Light Rain,0,2013-08-23 16:49:00
8:53 AM,52.0,51.1,97,29.52,2.5,Variable,3.5,-,0.05,Rain,Light Rain,0,2013-08-23 16:53:00
9:12 AM,53.6,51.8,94,29.50,4.0,Variable,5.8,-,0.00,Rain,Light Rain,0,2013-08-23 17:12:00
9:23 AM,53.6,51.8,94,29.50,10.0,Variable,4.6,-,0.01,Rain,Light Rain,0,2013-08-23 17:23:00
9:43 AM,53.6,51.8,94,29.51,10.0,Variable,3.5,-,0.01,Rain,Light Rain,0,2013-08-23 17:43:00
9:53 AM,53.1,51.1,93,29.52,10.0,Variable,5.8,-,0.02,Rain,Light Rain,0,2013-08-23 17:53:00
10:17 AM,53.6,51.8,94,29.51,7.0,WNW,4.6,-,0.01,Rain,Light Rain,290,2013-08-23 18:17:00
10:22 AM,53.6,51.8,94,29.51,6.0,Variable,3.5,-,0.01,Rain,Light Rain,0,2013-08-23 18:22:00
10:29 AM,53.6,51.8,94,29.51,6.0,Calm,Calm,-,0.02,Rain,Light Rain,0,2013-08-23 18:29:00
10:53 AM,53.1,52.0,96,29.53,7.0,Variable,3.5,-,0.03,Rain,Light Rain,0,2013-08-23 18:53:00
11:07 AM,53.6,51.8,94,29.51,6.0,Calm,Calm,-,0.00,Rain,Light Rain,0,2013-08-23 19:07:00
11:32 AM,53.6,51.8,94,29.51,8.0,Calm,Calm,-,0.02,Rain,Light Rain,0,2013-08-23 19:32:00
11:53 AM,54.0,52.0,93,29.53,4.0,WSW,4.6,-,0.03,Rain,Light Rain,240,2013-08-23 19:53:00
11:59 AM,53.6,51.8,94,29.51,2.5,Variable,5.8,-,0.00,Rain,Light Rain,0,2013-08-23 19:59:00
12:07 PM,53.6,51.8,94,29.51,1.8,WSW,5.8,-,0.03,Rain,Light Rain,250,2013-08-23 20:07:00
12:10 PM,53.6,51.8,94,29.51,2.5,Variable,4.6,-,0.03,Rain,Light Rain,0,2013-08-23 20:10:00
12:14 PM,53.6,51.8,94,29.51,3.0,Variable,4.6,-,0.04,Rain,Light Rain,0,2013-08-23 20:14:00
12:22 PM,53.6,51.8,94,29.51,4.0,SW,4.6,-,0.04,Rain,Light Rain,230,2013-08-23 20:22:00
12:28 PM,53.6,51.8,94,29.51,1.5,WSW,5.8,-,0.05,Rain,Rain,240,2013-08-23 20:28:00
12:39 PM,53.6,51.8,94,29.51,2.5,Variable,4.6,-,0.09,Rain,Light Rain,0,2013-08-23 20:39:00
12:45 PM,53.6,51.8,94,29.51,2.5,West,4.6,-,0.09,Rain,Light Rain,280,2013-08-23 20:45:00
12:53 PM,54.0,52.0,93,29.54,2.0,Variable,3.5,-,0.12,Rain,Light Rain,0,2013-08-23 20:53:00
1:00 PM,53.6,51.8,94,29.52,5.0,Variable,4.6,-,0.00,Rain,Light Rain,0,2013-08-23 21:00:00
1:07 PM,53.6,51.8,94,29.52,3.0,Variable,5.8,-,0.00,Rain,Light Rain,0,2013-08-23 21:07:00
1:26 PM,55.4,53.6,94,29.52,9.0,Variable,3.5,-,0.00,Rain,Light Rain,0,2013-08-23 21:26:00
1:33 PM,55.4,53.6,94,29.52,10.0,Variable,3.5,-,0.01,Rain,Light Rain,0,2013-08-23 21:33:00
1:42 PM,53.6,53.6,100,29.53,1.8,WNW,5.8,-,0.01,Rain,Rain,300,2013-08-23 21:42:00
1:53 PM,54.0,52.0,93,29.55,3.0,Variable,3.5,-,0.07,Rain,Light Rain,0,2013-08-23 21:53:00
2:03 PM,55.4,53.6,94,29.53,10.0,Variable,3.5,-,0.00,Rain,Light Rain,0,2013-08-23 22:03:00
2:19 PM,55.4,53.6,94,29.53,9.0,Variable,3.5,-,0.00,Rain,Light Rain,0,2013-08-23 22:19:00
2:30 PM,55.4,53.6,94,29.53,8.0,NW,4.6,-,0.01,Rain,Light Rain,310,2013-08-23 22:30:00
2:42 PM,55.4,51.8,88,29.53,3.0,NNW,5.8,-,0.01,Rain,Light Rain,330,2013-08-23 22:42:00
2:45 PM,55.4,51.8,88,29.53,1.8,NW,9.2,-,0.03,Rain,Heavy Rain,320,2013-08-23 22:45:00
2:53 PM,54.0,52.0,93,29.56,1.5,Variable,4.6,-,0.06,Rain,Rain,0,2013-08-23 22:53:00
3:01 PM,53.6,51.8,94,29.54,3.0,WNW,4.6,-,0.01,Rain,Light Rain,290,2013-08-23 23:01:00
3:12 PM,53.6,51.8,94,29.54,3.0,WNW,3.5,-,0.02,Rain,Light Rain,290,2013-08-23 23:12:00
3:15 PM,53.6,51.8,94,29.54,2.5,WNW,5.8,-,0.03,Rain,Light Rain,290,2013-08-23 23:15:00
3:17 PM,53.6,51.8,94,29.54,3.0,NW,5.8,-,0.03,Rain,Light Rain,310,2013-08-23 23:17:00
3:28 PM,53.6,51.8,94,29.55,5.0,WNW,5.8,-,0.04,Rain,Light Rain,300,2013-08-23 23:28:00
3:53 PM,54.0,51.1,90,29.57,8.0,NW,6.9,-,0.04,Rain,Light Rain,310,2013-08-23 23:53:00
4:00 PM,53.6,51.8,94,29.55,9.0,WNW,6.9,-,0.00,Rain,Light Rain,300,2013-08-24 00:00:00
4:27 PM,53.6,51.8,94,29.56,10.0,NW,4.6,-,0.00,Rain,Light Rain,310,2013-08-24 00:27:00
4:53 PM,54.0,51.1,90,29.59,10.0,NW,4.6,-,0.00,Rain,Light Rain,310,2013-08-24 00:53:00
5:01 PM,53.6,51.8,94,29.57,10.0,Variable,3.5,-,0.00,Rain,Light Rain,0,2013-08-24 01:01:00
5:12 PM,53.6,51.8,94,29.57,10.0,West,3.5,-,0.01,Rain,Light Rain,280,2013-08-24 01:12:00
5:22 PM,53.6,51.8,94,29.57,10.0,WNW,5.8,-,0.01,Rain,Light Rain,290,2013-08-24 01:22:00
5:38 PM,53.6,51.8,94,29.58,1.8,NW,4.6,-,0.03,Rain,Heavy Rain,320,2013-08-24 01:38:00
5:47 PM,53.6,50.0,88,29.58,3.0,NNW,6.9,-,0.05,Rain,Light Rain,340,2013-08-24 01:47:00
5:53 PM,53.1,50.0,89,29.60,8.0,North,8.1,-,0.05,Rain,Light Rain,350,2013-08-24 01:53:00
6:07 PM,53.6,51.8,94,29.58,10.0,NW,3.5,-,0.00,Rain,Light Rain,320,2013-08-24 02:07:00
6:40 PM,53.6,50.0,88,29.59,10.0,NW,5.8,-,0.00,Rain,Light Rain,320,2013-08-24 02:40:00
6:53 PM,53.1,50.0,89,29.61,10.0,NNW,4.6,-,0.00,,Overcast,330,2013-08-24 02:53:00
7:53 PM,52.0,50.0,93,29.63,10.0,Calm,Calm,-,0.01,,Overcast,0,2013-08-24 03:53:00
8:15 PM,51.8,51.8,100,29.61,10.0,Calm,Calm,-,N/A,,Overcast,0,2013-08-24 04:15:00
8:53 PM,52.0,48.9,89,29.64,10.0,Variable,3.5,-,N/A,,Overcast,0,2013-08-24 04:53:00
9:53 PM,52.0,48.9,89,29.66,10.0,WNW,4.6,-,N/A,,Overcast,300,2013-08-24 05:53:00
10:53 PM,52.0,46.9,83,29.68,10.0,Calm,Calm,-,N/A,,Mostly Cloudy,0,2013-08-24 06:53:00
11:53 PM,51.1,46.9,86,29.70,10.0,WNW,3.5,-,N/A,,Partly Cloudy,300,2013-08-24 07:53:00